Regional Weather Roundup
Issued by NWS Sioux Falls, SD

Home | Current Version | Previous Version | Graphics & Text | Print | Product List | Glossary Off
Versions: 1 2 3 4 5 6 7 8 9 10 11 12 13 14 15 16 17 18 19 20 21 22 23 24 25 26 27 28 29 30 31 32 33 34 35 36 37 38 39 40 41 42 43 44 45 46 47 48 49 50

000
ASUS43 KFSD 301702
RWRFSD

WEATHER ROUNDUP FOR SE SOUTH DAKOTA/SW MINNESOTA/NW IOWA
NATIONAL WEATHER SERVICE SIOUX FALLS SD
1200 PM CDT SUN AUG 30 2015

NOTE: "FAIR" INDICATES FEW OR NO CLOUDS BELOW 12,000 FEET WITH NO
SIGNIFICANT WEATHER AND OR OBSTRUCTIONS TO VISIBILITY.


SDZ038>040-050-052>070-301800-
SOUTHEAST SOUTH DAKOTA

CITY           SKY/WX    TMP DP  RH WIND       PRES   REMARKS
BROOKINGS      SUNNY     72  63  73 S13       29.97F
CHAMBERLAIN    SUNNY     80  64  58 S9        29.88S
HURON          MOSUNNY   75  64  68 S15       29.88F
MADISON        FAIR      68  68 100 S12       29.96F
MITCHELL       MOSUNNY   77  67  71 SE14      29.92S
SIOUX FALLS    SUNNY     69  63  81 S13       29.98F
WINNER         FAIR      86  55  34 S17       29.88S
YANKTON        SUNNY     73  64  73 SE12      29.96F
$$

MNZ071-072-080-081-089-090-097-098-301800-
SOUTHWEST MINNESOTA

CITY           SKY/WX    TMP DP  RH WIND       PRES   REMARKS
FAIRMONT       SUNNY     70  61  73 S13       30.02F
JACKSON        SUNNY     72  64  78 S9        30.03S
LUVERNE        MOSUNNY   68  63  83 S9        30.01S
MARSHALL       SUNNY     73  61  64 S14       29.97S
MONTEVIDEO     SUNNY     75  66  73 SW10      29.95S
PIPESTONE      SUNNY     70  63  78 S9        29.99S
REDWOOD FALLS  SUNNY     74  64  71 S13       29.96F
TRACY          SUNNY     73  65  77 S9        29.98S
WINDOM         SUNNY     73  63  68 S7        30.00S
WORTHINGTON    SUNNY     70  61  73 S12       30.01F
$$

IAZ001>003-012>014-020>022-031-032-NEZ013-014-SDZ071-301800-
NORTHWEST IOWA

CITY           SKY/WX    TMP DP  RH WIND       PRES   REMARKS
DENISON        CLOUDY    66  63  88 SW8G14    30.05S
ESTHERVILLE    SUNNY     70  64  81 S10       30.03F
SIOUX CITY     NOT AVBL
SPENCER        SUNNY     71  63  75 S12       30.04R
$$

ABBREVIATIONS USED IN REMARKS
   TC - TEMPERATURE IN CELSIUS
  WCI - WIND CHILL INDEX
   HX - HEAT INDEX
  VSB - VISIBILITY



USA.gov is the U.S. government's official web portal to all federal, state and local government web resources and services.